EW4725 Weather Reports


Display with metric or nautical units.
time (UTC)temp
F
wind
direction
speed
MPH
gust
MPH
rain 1hr
in
rain 24hr
in
rain mn
in
humidity
%
barometer
mb
20260505021816 61 148 4.0 7.0 0.01 0.01 0.01 81 1014.7
20260505021316 62 215 4.0 8.0 0.00 0.00 0.00 76 1014.6
20260505020816 62 238 4.0 8.0 0.00 0.00 0.00 73 1014.6
20260505020316 63 170 2.0 2.0 0.00 0.00 0.00 73 1014.5
20260505015816 63 283 1.0 1.0 0.00 0.00 0.00 71 1014.5
20260505015316 63 260 4.0 5.0 0.00 0.00 0.00 67 1014.5
20260505014816 63 260 5.0 7.0 0.00 0.00 0.00 66 1014.5
20260505014316 63 260 2.0 4.0 0.00 0.00 0.00 65 1014.4
20260505013856 63 260 6.0 9.0 0.00 0.00 0.00 66 1014.5
20260505013316 63 283 7.0 10.0 0.00 0.00 0.00 65 1014.5
20260505012816 63 283 4.0 8.0 0.00 0.00 0.00 67 1014.5
20260505012316 63 283 5.0 7.0 0.00 0.00 0.00 66 1014.4
20260505011856 63 283 7.0 8.0 0.00 0.00 0.00 67 1014.4
20260505011316 63 283 6.0 8.0 0.00 0.00 0.00 67 1014.5
20260505010816 63 260 6.0 9.0 0.00 0.00 0.00 67 1014.5
20260505010316 63 260 6.0 8.0 0.00 0.00 0.00 68 1014.6
20260505005816 63 283 6.0 8.0 0.00 0.00 0.00 67 1014.5
20260505005316 63 283 6.0 10.0 0.00 0.00 0.00 68 1014.6
20260505004816 64 260 8.0 11.0 0.00 0.00 0.00 68 1014.6
20260505004316 64 260 7.0 9.0 0.00 0.00 0.00 67 1014.7
20260505003816 64 283 8.0 11.0 0.00 0.00 0.00 67 1014.7
20260505003316 64 260 6.0 9.0 0.00 0.00 0.00 67 1014.7
20260505002836 64 260 5.0 6.0 0.00 0.00 0.00 68 1014.7
20260505002316 64 283 8.0 12.0 0.00 0.00 0.00 67 1014.8
20260505001816 64 260 8.0 10.0 0.00 0.00 0.00 66 1014.8
20260505001316 65 283 7.0 10.0 0.00 0.00 0.00 64 1014.8
20260505000816 65 283 7.0 9.0 0.00 0.00 0.00 65 1014.7
20260505000316 65 283 6.0 9.0 0.00 0.00 0.00 64 1014.7
20260504235816 64 260 10.0 15.0 0.00 0.00 0.00 62 1014.7
20260504235315 65 260 9.0 11.0 0.00 0.00 0.00 63 1014.7
20260504234815 65 283 6.0 9.0 0.00 0.00 0.00 63 1014.7
20260504234316 65 260 9.0 12.0 0.00 0.00 0.00 63 1014.5
20260504233836 65 260 8.0 12.0 0.00 0.00 0.00 63 1014.6
20260504233316 66 283 8.0 12.0 0.00 0.00 0.00 62 1014.5
20260504232816 65 260 7.0 10.0 0.00 0.00 0.00 63 1014.4
20260504232316 65 283 8.0 13.0 0.00 0.00 0.00 63 1014.5
20260504231815 66 283 8.0 14.0 0.00 0.00 0.00 62 1014.5
20260504231336 66 283 8.0 14.0 0.00 0.00 0.00 61 1014.5
20260504230816 66 283 11.0 17.0 0.00 0.00 0.00 61 1014.5
20260504230356 66 283 10.0 15.0 0.00 0.00 0.00 63 1014.5
20260504225815 66 283 6.0 12.0 0.00 0.00 0.00 64 1014.6
20260504225336 66 283 7.0 10.0 0.00 0.00 0.00 62 1014.7
20260504224815 66 283 7.0 11.0 0.00 0.00 0.00 63 1014.7
20260504224315 66 283 10.0 14.0 0.00 0.00 0.00 62 1014.9
20260504223815 66 283 9.0 12.0 0.00 0.00 0.00 63 1014.7
20260504223316 67 260 9.0 16.0 0.00 0.00 0.00 62 1014.8
20260504222815 67 283 10.0 15.0 0.00 0.00 0.00 61 1014.9
20260504222356 68 260 6.0 11.0 0.00 0.00 0.00 60 1014.8
20260504221815 67 260 9.0 16.0 0.00 0.00 0.00 60 1014.9
20260504221316 67 260 10.0 14.0 0.00 0.00 0.00 59 1014.9
20260504220816 67 260 10.0 15.0 0.00 0.00 0.00 58 1015.0
20260504220315 67 260 8.0 12.0 0.00 0.00 0.00 58 1015.0
20260504215815 67 283 6.0 10.0 0.00 0.00 0.00 59 1015.1
20260504215315 67 260 12.0 16.0 0.00 0.00 0.00 60 1015.1
20260504214836 67 260 8.0 14.0 0.00 0.00 0.00 60 1015.1
20260504214316 67 283 8.0 13.0 0.00 0.00 0.00 60 1015.2
20260504213816 68 260 6.0 9.0 0.00 0.00 0.00 58 1015.2
20260504213315 68 260 8.0 12.0 0.00 0.00 0.00 57 1015.2
20260504212816 68 260 7.0 13.0 0.00 0.00 0.00 58 1015.3
20260504212315 68 260 6.0 14.0 0.00 0.00 0.00 56 1015.3
20260504211816 68 238 6.0 9.0 0.00 0.00 0.00 55 1015.3
20260504211315 69 215 8.0 11.0 0.00 0.00 0.00 56 1015.4
20260504210816 69 283 7.0 11.0 0.00 0.00 0.00 56 1015.3
20260504210335 69 260 5.0 9.0 0.00 0.00 0.00 57 1015.3
20260504205815 68 283 8.0 13.0 0.00 0.00 0.00 57 1015.2
20260504205315 68 283 9.0 14.0 0.00 0.00 0.00 57 1015.2
20260504204816 68 260 6.0 10.0 0.00 0.00 0.00 58 1015.3
20260504204315 68 283 7.0 13.0 0.00 0.00 0.00 57 1015.3
20260504203815 68 283 8.0 12.0 0.00 0.00 0.00 56 1015.3
20260504203315 68 260 6.0 9.0 0.00 0.00 0.00 55 1015.3
20260504202835 68 283 6.0 11.0 0.00 0.00 0.00 52 1015.3
20260504202315 68 283 7.0 9.0 0.00 0.00 0.00 52 1015.3
20260504201815 69 283 6.0 8.0 0.00 0.00 0.00 51 1015.3
20260504201335 69 260 4.0 6.0 0.00 0.00 0.00 51 1015.5
20260504200816 69 260 8.0 13.0 0.00 0.00 0.00 51 1015.5
20260504200316 69 283 10.0 13.0 0.00 0.00 0.00 51 1015.5
20260504195815 69 283 6.0 9.0 0.00 0.00 0.00 50 1015.4
20260504195335 69 283 4.0 7.0 0.00 0.00 0.00 52 1015.5
20260504194815 69 305 5.0 9.0 0.00 0.00 0.00 53 1015.6
20260504194315 68 260 7.0 11.0 0.00 0.00 0.00 54 1015.7
20260504193815 68 283 5.0 8.0 0.00 0.00 0.00 54 1015.6
20260504193315 67 283 3.0 5.0 0.00 0.00 0.00 55 1015.7
20260504192816 67 260 6.0 8.0 0.00 0.00 0.00 52 1015.8
20260504192335 68 283 3.0 5.0 0.00 0.00 0.00 51 1015.9
20260504191815 68 260 5.0 9.0 0.00 0.00 0.00 52 1015.9
20260504191315 67 283 4.0 8.0 0.00 0.00 0.00 52 1015.8
20260504190815 67 283 5.0 8.0 0.00 0.00 0.00 51 1015.9
20260504190335 67 260 6.0 9.0 0.00 0.00 0.00 53 1015.8
20260504185815 67 283 8.0 11.0 0.00 0.00 0.00 54 1015.8
20260504185315 67 260 6.0 8.0 0.00 0.00 0.00 55 1016.0
20260504184815 67 260 6.0 11.0 0.00 0.00 0.00 55 1016.0
20260504184335 67 260 4.0 6.0 0.00 0.00 0.00 54 1016.0
20260504183815 67 283 7.0 10.0 0.00 0.00 0.00 54 1016.0
20260504183315 67 260 4.0 10.0 0.00 0.00 0.00 53 1015.9
20260504182815 67 260 5.0 8.0 0.00 0.00 0.00 53 1016.0
20260504182317 67 260 5.0 9.0 0.00 0.00 0.00 51 1016.0
20260504181817 67 238 7.0 10.0 0.00 0.00 0.00 55 1016.1
20260504181315 66 305 6.0 9.0 0.00 0.00 0.00 55 1016.1
20260504180817 66 283 5.0 10.0 0.00 0.00 0.00 56 1016.0
20260504180317 66 260 8.0 10.0 0.00 0.00 0.00 56 1016.0
20260504175817 67 260 9.0 15.0 0.00 0.00 0.00 56 1016.1
20260504175316 66 305 3.0 5.0 0.00 0.00 0.00 55 1016.0
20260504174817 66 260 7.0 11.0 0.00 0.00 0.00 56 1016.0
20260504174337 66 260 6.0 10.0 0.00 0.00 0.00 54 1015.9
20260504173817 66 305 5.0 10.0 0.00 0.00 0.00 55 1015.9
20260504173317 66 260 6.0 10.0 0.00 0.00 0.00 57 1015.8
20260504172817 65 283 6.0 12.0 0.00 0.00 0.00 55 1015.8
20260504172337 65 260 4.0 6.0 0.00 0.00 0.00 58 1015.7
20260504171818 65 260 6.0 10.0 0.00 0.00 0.00 59 1015.8
20260504171317 65 238 6.0 8.0 0.00 0.00 0.00 60 1015.7
20260504170817 65 283 6.0 8.0 0.00 0.00 0.00 59 1015.7
20260504170317 64 215 5.0 7.0 0.00 0.00 0.00 61 1015.8
20260504160317 63 283 5.0 7.0 0.00 0.00 0.00 64 1015.5
20260504150817 60 260 3.0 4.0 0.00 0.00 0.00 73 1015.3
20260504150337 60 260 2.0 5.0 0.00 0.00 0.00 74 1015.3
20260504141317 58 260 3.0 4.0 0.00 0.00 0.00 76 1015.0
20260504140817 58 283 4.0 6.0 0.00 0.00 0.00 76 1015.0
20260504140317 58 260 4.0 6.0 0.00 0.00 0.00 75 1015.0
20260504130817 58 283 1.0 2.0 0.00 0.00 0.00 74 1014.7
20260504130317 58 260 4.0 7.0 0.00 0.00 0.00 74 1014.9
20260504120317 58 238 3.0 6.0 0.00 0.00 0.00 78 1014.6
20260504110316 58 283 3.0 4.0 0.00 0.00 0.00 79 1014.5
20260504100316 57 305 1.0 2.0 0.00 0.00 0.00 81 1014.5
20260504081816 59 260 1.0 3.0 0.00 0.00 0.00 78 1015.3
20260504081316 59 260 3.0 4.0 0.00 0.00 0.00 78 1015.7
20260504080816 59 283 3.0 3.0 0.00 0.00 0.00 78 1015.4
20260504080316 59 260 2.0 3.0 0.00 0.00 0.00 78 1015.4
20260504070337 59 260 5.0 6.0 0.00 0.00 0.00 75 1015.5
20260504050316 60 283 3.0 4.0 0.00 0.00 0.00 78 1015.0
20260504045816 60 260 3.0 5.0 0.00 0.00 0.00 79 1015.0
20260504045316 60 283 3.0 6.0 0.00 0.00 0.00 78 1015.0
20260504044816 60 260 3.0 5.0 0.00 0.00 0.00 78 1015.0
20260504044316 60 260 4.0 5.0 0.00 0.00 0.00 77 1015.0
20260504043836 60 260 3.0 7.0 0.00 0.00 0.00 77 1015.0
20260504043316 60 260 3.0 5.0 0.00 0.00 0.00 77 1014.9
20260504042816 60 260 4.0 6.0 0.00 0.00 0.00 76 1014.8
20260504042316 60 283 3.0 5.0 0.00 0.00 0.00 76 1015.0
20260504041836 60 260 2.0 4.0 0.00 0.00 0.00 76 1014.8
20260504041336 60 260 3.0 4.0 0.00 0.00 0.00 76 1014.7
20260504040816 60 283 4.0 5.0 0.00 0.00 0.00 76 1014.7
20260504040316 60 283 5.0 7.0 0.00 0.00 0.00 76 1014.7
20260504035816 60 260 5.0 8.0 0.00 0.00 0.00 75 1014.5
20260504035336 60 260 4.0 7.0 0.00 0.00 0.00 75 1014.4
20260504034816 60 283 1.0 2.0 0.00 0.00 0.00 75 1014.4
20260504034316 60 283 2.0 4.0 0.00 0.00 0.00 75 1014.6
20260504033816 60 260 2.0 3.0 0.00 0.00 0.00 74 1014.4
20260504033316 60 283 6.0 9.0 0.00 0.00 0.00 74 1014.4
20260504032856 60 305 6.0 9.0 0.00 0.00 0.00 74 1014.3
20260504032316 60 260 5.0 9.0 0.00 0.00 0.00 74 1014.2
20260504031816 60 283 5.0 8.0 0.00 0.00 0.00 74 1014.2
20260504031336 60 283 5.0 7.0 0.00 0.00 0.00 75 1014.1
20260504030816 60 260 2.0 2.0 0.00 0.00 0.00 75 1014.0
20260504030316 60 283 6.0 9.0 0.00 0.00 0.00 75 1013.9
20260504025816 61 260 5.0 7.0 0.00 0.00 0.00 75 1013.9
20260504025316 60 283 6.0 9.0 0.00 0.00 0.00 75 1014.0
20260504024816 60 283 6.0 10.0 0.00 0.00 0.00 75 1013.8
20260504024316 61 283 7.0 11.0 0.00 0.00 0.00 75 1013.8
20260504023816 61 260 8.0 10.0 0.00 0.00 0.00 75 1013.8
20260504023316 61 260 6.0 10.0 0.00 0.00 0.00 74 1013.8
20260504022816 61 260 8.0 13.0 0.00 0.00 0.00 74 1013.8
20260504022316 61 260 5.0 6.0 0.00 0.00 0.00 74 1013.8